Imperial, NE

3:50 AM MDT on May 25, 2017 (GMT -0600)
Imperial Municipal

Weather History for KIML - February, 2014

Change the Weather History Date:

Monday, February 24, 2014

  Actual Average Record
Temperature  
Mean Temperature 19 °F 34 °F  
Max Temperature 32 °F 47 °F 73 °F (2009)
Min Temperature 5 °F 20 °F -15 °F (1960)
Degree Days  
Heating Degree Days 46 31  
Month to date heating degree days 991 815  
Cooling Degree Days 0 0  
Month to date cooling degree days 0 0  
Year to date cooling degree days 0 0  
Moisture  
Dew Point 17 °F    
Average Humidity 80    
Maximum Humidity 92    
Minimum Humidity 67    
Precipitation  
Precipitation 0.00 in 0.01 in 0.35 in (1903)
Sea Level Pressure  
Sea Level Pressure 30.18 in    
Wind  
Wind Speed 16 mph (ESE)    
Max Wind Speed 31 mph    
Max Gust Speed 38 mph    
Visibility 8 miles    
Events      
T = Trace of Precipitation, MM = Missing Value Source: NWS Daily Summary

Daily Weather History Graph

Daily Weather History Graph

Search for Another Location

Airport or City:

Trip Planner

Search our weather history database for the weather conditions in past years. The results will help you decide how hot, cold, wet, or windy it might be!

Date:

Astronomy

Feb. 24, 2014 Rise Set
Actual Time 6:27 AM MST 5:32 PM MST
Civil Twilight 6:00 AM MST 5:59 PM MST
Nautical Twilight 5:28 AM MST 6:31 PM MST
Astronomical Twilight 4:56 AM MST 7:03 PM MST
Moon 2:28 AM MST (2/24) 12:34 PM MST (2/24)
Length of Visible Light 11h 59m
Length of Day
11h 04m
Waning Crescent, 27% of the Moon is Illuminated
Feb 24
Waning Crescent
Mar 1
New
Mar 8
First Quarter
Mar 16
Full
Mar 23
Last Quarter

Hourly Weather History & Observations

Time (MST) Temp. Windchill Dew Point Humidity Pressure Visibility Wind Dir Wind Speed Gust Speed Precip Events Conditions
12:05 AM 17.6 °F 2.7 °F 15.8 °F 93% 30.15 in 8.0 mi ESE 16.1 mph - N/A   Overcast
12:53 AM 18.0 °F 3.1 °F 15.1 °F 88% 30.26 in 6.0 mi SE 16.1 mph - N/A   Overcast
1:23 AM 17.6 °F 3.7 °F 15.8 °F 93% 30.11 in 5.0 mi ESE 13.8 mph - N/A   Overcast
1:53 AM 18.0 °F 3.6 °F 16.0 °F 92% 30.23 in 10.0 mi SE 15.0 mph - N/A   Overcast
2:53 AM 18.0 °F 3.1 °F 16.0 °F 92% 30.22 in 3.0 mi SE 16.1 mph - N/A   Overcast
3:53 AM 18.0 °F 4.2 °F 16.0 °F 92% 30.21 in 3.0 mi SE 13.8 mph - N/A   Overcast
4:09 AM 19.4 °F 5.5 °F 17.6 °F 93% 30.06 in 2.5 mi SSE 15.0 mph - N/A   Overcast
4:45 AM 19.4 °F 4.5 °F 17.6 °F 93% 30.05 in 3.0 mi SSE 17.3 mph - N/A   Overcast
4:53 AM 19.9 °F 5.2 °F 17.1 °F 89% 30.19 in 3.0 mi SSE 17.3 mph - N/A   Overcast
5:53 AM 21.0 °F 5.7 °F 18.0 °F 88% 30.17 in 5.0 mi SSE 19.6 mph 25.3 mph N/A   Overcast
6:45 AM 19.4 °F 2.8 °F 17.6 °F 93% 30.02 in 10.0 mi SSE 21.9 mph 26.5 mph N/A   Overcast
6:53 AM 19.9 °F 4.3 °F 17.1 °F 89% 30.15 in 10.0 mi SSE 19.6 mph 26.5 mph N/A   Overcast
7:21 AM 19.4 °F 4.5 °F 17.6 °F 93% 30.02 in 10.0 mi SSE 17.3 mph 26.5 mph N/A   Overcast
7:53 AM 19.9 °F 4.3 °F 17.1 °F 89% 30.15 in 10.0 mi SSE 19.6 mph 27.6 mph N/A   Overcast
8:53 AM 21.0 °F 7.1 °F 17.1 °F 85% 30.16 in 10.0 mi South 16.1 mph 26.5 mph N/A   Overcast
9:53 AM 21.9 °F 8.7 °F 18.0 °F 85% 30.15 in 10.0 mi South 15.0 mph - N/A   Overcast
10:53 AM 24.1 °F 10.1 °F 19.0 °F 81% 30.13 in 10.0 mi South 18.4 mph - N/A   Overcast
11:53 AM 25.0 °F 12.6 °F 21.0 °F 85% 30.10 in 8.0 mi South 15.0 mph - N/A   Overcast
12:01 PM 26.6 °F 15.7 °F 21.2 °F 80% 29.97 in 8.0 mi South 12.7 mph - N/A   Unknown
12:31 PM 26.6 °F 14.7 °F 21.2 °F 80% 29.95 in 8.0 mi South 15.0 mph - N/A   Overcast
12:53 PM 27.0 °F 15.6 °F 23.0 °F 85% 30.06 in 8.0 mi South 13.8 mph - N/A   Overcast
1:33 PM 28.4 °F 18.5 °F 23.0 °F 80% 29.94 in 10.0 mi South 11.5 mph - N/A   Scattered Clouds
1:53 PM 30.0 °F 23.2 °F 24.1 °F 79% 30.07 in 10.0 mi South 6.9 mph - N/A   Clear
2:50 PM 30.2 °F 20.8 °F 24.8 °F 80% 30.03 in 8.0 mi North 11.5 mph - N/A   Mostly Cloudy
2:53 PM 30.0 °F 20.5 °F 24.1 °F 79% 30.14 in 8.0 mi North 11.5 mph - N/A   Mostly Cloudy
3:17 PM 28.4 °F 18.5 °F 24.8 °F 86% 30.04 in 7.0 mi NNE 11.5 mph - N/A   Overcast
3:53 PM 28.9 °F 18.6 °F 24.1 °F 82% 30.18 in 7.0 mi NNE 12.7 mph - N/A   Overcast
4:36 PM 28.4 °F 14.4 °F 24.8 °F 86% 30.09 in 7.0 mi North 23.0 mph 29.9 mph N/A   Overcast
4:53 PM 27.0 °F 11.0 °F 21.9 °F 81% 30.22 in 8.0 mi North 28.8 mph 35.7 mph N/A   Overcast
5:33 PM 26.6 °F 11.7 °F 19.4 °F 74% 30.17 in 10.0 mi North 24.2 mph 31.1 mph N/A   Overcast
5:53 PM 25.0 °F 10.9 °F 19.0 °F 78% 30.30 in 10.0 mi North 19.6 mph 29.9 mph N/A   Overcast
6:53 PM 24.1 °F 9.8 °F 17.1 °F 75% 30.36 in 10.0 mi North 19.6 mph 29.9 mph N/A   Overcast
7:12 PM 19.4 °F 1.8 °F 14.0 °F 80% 30.25 in 10.0 mi North 25.3 mph 32.2 mph N/A   Scattered Clouds
7:53 PM 17.1 °F -1.4 °F 9.0 °F 71% 30.43 in 10.0 mi North 25.3 mph 32.2 mph N/A   Clear
8:53 PM 12.0 °F -5.6 °F 5.0 °F 73% 30.47 in 10.0 mi North 18.4 mph - N/A   Clear
9:53 PM 10.0 °F -3.7 °F 3.0 °F 73% 30.51 in 10.0 mi North 10.4 mph - N/A   Clear
10:53 PM 8.1 °F -6.2 °F 1.0 °F 73% 30.51 in 10.0 mi NNW 10.4 mph - N/A   Clear
11:53 PM 5.0 °F -10.0 °F -2.0 °F 73% 30.49 in 10.0 mi NNW 10.4 mph - N/A   Clear